Year,Month,Day,Hour,Minute,Value (Times are PST for windgust in km/hr)
2019,04,05,00,00,8.10
2019,04,05,00,01,6.40
2019,04,05,00,02,4.80
2019,04,05,00,03,4.80
2019,04,05,00,04,3.20
2019,04,05,00,05,6.40
2019,04,05,00,06,8.10
2019,04,05,00,07,4.80
2019,04,05,00,08,8.10
2019,04,05,00,09,9.60
2019,04,05,00,10,11.30
2019,04,05,00,11,9.60
2019,04,05,00,12,8.10
2019,04,05,00,13,8.10
2019,04,05,00,14,11.30
2019,04,05,00,15,9.60
2019,04,05,00,16,9.60
2019,04,05,00,17,9.60
2019,04,05,00,18,12.90
2019,04,05,00,19,12.90
2019,04,05,00,20,11.30
2019,04,05,00,21,12.90
2019,04,05,00,22,16.10
2019,04,05,00,23,12.90
2019,04,05,00,24,14.50
2019,04,05,00,25,12.90
2019,04,05,00,26,12.90
2019,04,05,00,27,14.50
2019,04,05,00,28,11.30
2019,04,05,00,29,11.30
2019,04,05,00,30,9.60
2019,04,05,00,31,11.30
2019,04,05,00,32,11.30
2019,04,05,00,33,11.30
2019,04,05,00,34,9.60
2019,04,05,00,35,11.30
2019,04,05,00,36,9.60
2019,04,05,00,37,9.60
2019,04,05,00,38,8.10
2019,04,05,00,39,11.30
2019,04,05,00,40,8.10
2019,04,05,00,41,8.10
2019,04,05,00,42,9.60
2019,04,05,00,43,11.30
2019,04,05,00,44,9.60
2019,04,05,00,45,8.10
2019,04,05,00,46,8.10
2019,04,05,00,47,9.60
2019,04,05,00,48,9.60
2019,04,05,00,49,11.30
2019,04,05,00,50,11.30
2019,04,05,00,51,9.60
2019,04,05,00,52,8.10
2019,04,05,00,53,9.60
2019,04,05,00,54,6.40
2019,04,05,00,55,4.80
2019,04,05,00,56,8.10
2019,04,05,00,57,9.60
2019,04,05,00,58,8.10
2019,04,05,00,59,6.40
2019,04,05,01,00,6.40
2019,04,05,01,01,8.10
2019,04,05,01,02,6.40
2019,04,05,01,03,8.10
2019,04,05,01,04,11.30
2019,04,05,01,05,6.40
2019,04,05,01,06,8.10
2019,04,05,01,07,8.10
2019,04,05,01,08,8.10
2019,04,05,01,09,8.10
2019,04,05,01,10,9.60
2019,04,05,01,11,6.40
2019,04,05,01,12,8.10
2019,04,05,01,13,6.40
2019,04,05,01,14,8.10
2019,04,05,01,15,8.10
2019,04,05,01,16,8.10
2019,04,05,01,17,11.30
2019,04,05,01,18,9.60
2019,04,05,01,19,9.60
2019,04,05,01,20,11.30
2019,04,05,01,21,9.60
2019,04,05,01,22,8.10
2019,04,05,01,23,4.80
2019,04,05,01,24,3.20
2019,04,05,01,25,9.60
2019,04,05,01,26,6.40
2019,04,05,01,27,8.10
2019,04,05,01,28,6.40
2019,04,05,01,29,4.80
2019,04,05,01,30,4.80
2019,04,05,01,31,6.40
2019,04,05,01,32,8.10
2019,04,05,01,33,4.80
2019,04,05,01,34,4.80
2019,04,05,01,35,6.40
2019,04,05,01,36,4.80
2019,04,05,01,37,6.40
2019,04,05,01,38,8.10
2019,04,05,01,39,8.10
2019,04,05,01,40,6.40
2019,04,05,01,41,9.60
2019,04,05,01,42,4.80
2019,04,05,01,43,6.40
2019,04,05,01,44,4.80
2019,04,05,01,45,8.10
2019,04,05,01,46,6.40
2019,04,05,01,47,6.40
2019,04,05,01,48,6.40
2019,04,05,01,49,6.40
2019,04,05,01,50,11.30
2019,04,05,01,51,9.60
2019,04,05,01,52,9.60
2019,04,05,01,53,11.30
2019,04,05,01,54,8.10
2019,04,05,01,55,11.30
2019,04,05,01,56,9.60
2019,04,05,01,57,9.60
2019,04,05,01,58,9.60
2019,04,05,01,59,8.10
2019,04,05,02,00,8.10
2019,04,05,02,01,9.60
2019,04,05,02,02,8.10
2019,04,05,02,03,8.10
2019,04,05,02,04,8.10
2019,04,05,02,05,8.10
2019,04,05,02,06,8.10
2019,04,05,02,07,6.40
2019,04,05,02,08,6.40
2019,04,05,02,09,9.60
2019,04,05,02,10,6.40
2019,04,05,02,11,8.10
2019,04,05,02,12,8.10
2019,04,05,02,13,6.40
2019,04,05,02,14,8.10
2019,04,05,02,15,8.10
2019,04,05,02,16,8.10
2019,04,05,02,17,6.40
2019,04,05,02,18,6.40
2019,04,05,02,19,3.20
2019,04,05,02,20,4.80
2019,04,05,02,21,1.60
2019,04,05,02,22,3.20
2019,04,05,02,23,4.80
2019,04,05,02,24,3.20
2019,04,05,02,25,4.80
2019,04,05,02,26,3.20
2019,04,05,02,27,4.80
2019,04,05,02,28,4.80
2019,04,05,02,29,4.80
2019,04,05,02,30,6.40
2019,04,05,02,31,6.40
2019,04,05,02,32,6.40
2019,04,05,02,33,6.40
2019,04,05,02,34,6.40
2019,04,05,02,35,8.10
2019,04,05,02,36,6.40
2019,04,05,02,37,6.40
2019,04,05,02,38,6.40
2019,04,05,02,39,6.40
2019,04,05,02,40,9.60
2019,04,05,02,41,11.30
2019,04,05,02,42,9.60
2019,04,05,02,43,11.30
2019,04,05,02,44,9.60
2019,04,05,02,45,9.60
2019,04,05,02,46,11.30
2019,04,05,02,47,11.30
2019,04,05,02,48,9.60
2019,04,05,02,49,3.20
2019,04,05,02,50,3.20
2019,04,05,02,51,6.40
2019,04,05,02,52,8.10
2019,04,05,02,53,6.40
2019,04,05,02,54,11.30
2019,04,05,02,55,11.30
2019,04,05,02,56,16.10
2019,04,05,02,57,11.30
2019,04,05,02,58,12.90
2019,04,05,02,59,12.90
2019,04,05,03,00,11.30
2019,04,05,03,01,9.60
2019,04,05,03,02,11.30
2019,04,05,03,03,11.30
2019,04,05,03,04,12.90
2019,04,05,03,05,9.60
2019,04,05,03,06,11.30
2019,04,05,03,07,11.30
2019,04,05,03,08,11.30
2019,04,05,03,09,8.10
2019,04,05,03,10,4.80
2019,04,05,03,11,6.40
2019,04,05,03,12,6.40
2019,04,05,03,13,8.10
2019,04,05,03,14,6.40
2019,04,05,03,15,3.20
2019,04,05,03,16,3.20
2019,04,05,03,17,8.10
2019,04,05,03,18,8.10
2019,04,05,03,19,9.60
2019,04,05,03,20,1.60
2019,04,05,03,21,1.60
2019,04,05,03,22,6.40
2019,04,05,03,23,6.40
2019,04,05,03,24,3.20
2019,04,05,03,25,8.10
2019,04,05,03,26,8.10
2019,04,05,03,27,6.40
2019,04,05,03,28,3.20
2019,04,05,03,29,8.10
2019,04,05,03,30,9.60
2019,04,05,03,31,6.40
2019,04,05,03,32,8.10
2019,04,05,03,33,6.40
2019,04,05,03,34,3.20
2019,04,05,03,35,6.40
2019,04,05,03,36,8.10
2019,04,05,03,37,8.10
2019,04,05,03,38,8.10
2019,04,05,03,39,8.10
2019,04,05,03,40,11.30
2019,04,05,03,41,9.60
2019,04,05,03,42,8.10
2019,04,05,03,43,9.60
2019,04,05,03,44,9.60
2019,04,05,03,45,11.30
2019,04,05,03,46,11.30
2019,04,05,03,47,9.60
2019,04,05,03,48,9.60
2019,04,05,03,49,12.90
2019,04,05,03,50,12.90
2019,04,05,03,51,11.30
2019,04,05,03,52,11.30
2019,04,05,03,53,11.30
2019,04,05,03,54,8.10
2019,04,05,03,55,8.10
2019,04,05,03,56,9.60
2019,04,05,03,57,9.60
2019,04,05,03,58,11.30
2019,04,05,03,59,12.90
2019,04,05,04,00,12.90
2019,04,05,04,01,9.60
2019,04,05,04,02,9.60
2019,04,05,04,03,8.10
2019,04,05,04,04,8.10
2019,04,05,04,05,12.90
2019,04,05,04,06,11.30
2019,04,05,04,07,16.10
2019,04,05,04,08,12.90
2019,04,05,04,09,8.10
2019,04,05,04,10,11.30
2019,04,05,04,11,11.30
2019,04,05,04,12,6.40
2019,04,05,04,13,8.10
2019,04,05,04,14,12.90
2019,04,05,04,15,11.30
2019,04,05,04,16,14.50
2019,04,05,04,17,14.50
2019,04,05,04,18,12.90
2019,04,05,04,19,14.50
2019,04,05,04,20,16.10
2019,04,05,04,21,14.50
2019,04,05,04,22,12.90
2019,04,05,04,23,16.10
2019,04,05,04,24,17.70
2019,04,05,04,25,19.30
2019,04,05,04,26,17.70
2019,04,05,04,27,17.70
2019,04,05,04,28,19.30
2019,04,05,04,29,22.50
2019,04,05,04,30,22.50
2019,04,05,04,31,19.30
2019,04,05,04,32,20.90
2019,04,05,04,33,24.20
2019,04,05,04,34,24.20
2019,04,05,04,35,17.70
2019,04,05,04,36,12.90
2019,04,05,04,37,22.50
2019,04,05,04,38,24.20
2019,04,05,04,39,16.10
2019,04,05,04,40,16.10
2019,04,05,04,41,20.90
2019,04,05,04,42,24.20
2019,04,05,04,43,20.90
2019,04,05,04,44,19.30
2019,04,05,04,45,14.50
2019,04,05,04,46,19.30
2019,04,05,04,47,16.10
2019,04,05,04,48,19.30
2019,04,05,04,49,24.20
2019,04,05,04,50,20.90
2019,04,05,04,51,32.20
2019,04,05,04,52,22.50
2019,04,05,04,53,22.50
2019,04,05,04,54,17.70
2019,04,05,04,55,24.20
2019,04,05,04,56,22.50
2019,04,05,04,57,14.50
2019,04,05,04,58,16.10
2019,04,05,04,59,19.30
2019,04,05,05,00,17.70
2019,04,05,05,01,22.50
2019,04,05,05,02,19.30
2019,04,05,05,03,22.50
2019,04,05,05,04,19.30
2019,04,05,05,05,24.20
2019,04,05,05,06,22.50
2019,04,05,05,07,17.70
2019,04,05,05,08,24.20
2019,04,05,05,09,19.30
2019,04,05,05,10,27.40
2019,04,05,05,11,22.50
2019,04,05,05,12,17.70
2019,04,05,05,13,19.30
2019,04,05,05,14,24.20
2019,04,05,05,15,20.90
2019,04,05,05,16,17.70
2019,04,05,05,17,24.20
2019,04,05,05,18,22.50
2019,04,05,05,19,19.30
2019,04,05,05,20,12.90
2019,04,05,05,21,20.90
2019,04,05,05,22,24.20
2019,04,05,05,23,17.70
2019,04,05,05,24,17.70
2019,04,05,05,25,19.30
2019,04,05,05,26,20.90
2019,04,05,05,27,19.30
2019,04,05,05,28,14.50
2019,04,05,05,29,14.50
2019,04,05,05,30,12.90
2019,04,05,05,31,22.50
2019,04,05,05,32,16.10
2019,04,05,05,33,16.10
2019,04,05,05,34,14.50
2019,04,05,05,35,17.70
2019,04,05,05,36,16.10
2019,04,05,05,37,17.70
2019,04,05,05,38,22.50
2019,04,05,05,39,17.70
2019,04,05,05,40,19.30
2019,04,05,05,41,22.50
2019,04,05,05,42,20.90
2019,04,05,05,43,17.70
2019,04,05,05,44,17.70
2019,04,05,05,45,20.90
2019,04,05,05,46,22.50
2019,04,05,05,47,20.90
2019,04,05,05,48,20.90
2019,04,05,05,49,16.10
2019,04,05,05,50,22.50
2019,04,05,05,51,16.10
2019,04,05,05,52,14.50
2019,04,05,05,53,12.90
2019,04,05,05,54,14.50
2019,04,05,05,55,14.50
2019,04,05,05,56,22.50
2019,04,05,05,57,20.90
2019,04,05,05,58,17.70
2019,04,05,05,59,17.70
2019,04,05,06,00,22.50
2019,04,05,06,01,16.10
2019,04,05,06,02,20.90
2019,04,05,06,03,19.30
2019,04,05,06,04,17.70
2019,04,05,06,05,19.30
2019,04,05,06,06,22.50
2019,04,05,06,07,24.20
2019,04,05,06,08,22.50
2019,04,05,06,09,22.50
2019,04,05,06,10,25.70
2019,04,05,06,11,20.90
2019,04,05,06,12,20.90
2019,04,05,06,13,20.90
2019,04,05,06,14,22.50
2019,04,05,06,15,20.90
2019,04,05,06,16,19.30
2019,04,05,06,17,12.90
2019,04,05,06,18,14.50
2019,04,05,06,19,20.90
2019,04,05,06,20,14.50
2019,04,05,06,21,17.70
2019,04,05,06,22,17.70
2019,04,05,06,23,16.10
2019,04,05,06,24,16.10
2019,04,05,06,25,12.90
2019,04,05,06,26,17.70
2019,04,05,06,27,17.70
2019,04,05,06,28,16.10
2019,04,05,06,29,19.30
2019,04,05,06,30,16.10
2019,04,05,06,31,17.70
2019,04,05,06,32,17.70
2019,04,05,06,33,14.50
2019,04,05,06,34,19.30
2019,04,05,06,35,19.30
2019,04,05,06,36,16.10
2019,04,05,06,37,19.30
2019,04,05,06,38,19.30
2019,04,05,06,39,17.70
2019,04,05,06,40,17.70
2019,04,05,06,41,16.10
2019,04,05,06,42,19.30
2019,04,05,06,43,17.70
2019,04,05,06,44,19.30
2019,04,05,06,45,20.90
2019,04,05,06,46,14.50
2019,04,05,06,47,17.70
2019,04,05,06,48,19.30
2019,04,05,06,49,17.70
2019,04,05,06,50,17.70
2019,04,05,06,51,17.70
2019,04,05,06,52,16.10
2019,04,05,06,53,22.50
2019,04,05,06,54,22.50
2019,04,05,06,55,17.70
2019,04,05,06,56,17.70
2019,04,05,06,57,17.70
2019,04,05,06,58,20.90
2019,04,05,06,59,20.90
2019,04,05,07,00,19.30
2019,04,05,07,01,19.30
2019,04,05,07,02,16.10
2019,04,05,07,03,20.90
2019,04,05,07,04,20.90
2019,04,05,07,05,19.30
2019,04,05,07,06,22.50
2019,04,05,07,07,20.90
2019,04,05,07,08,20.90
2019,04,05,07,09,17.70
2019,04,05,07,10,20.90
2019,04,05,07,11,24.20
2019,04,05,07,12,24.20
2019,04,05,07,13,24.20
2019,04,05,07,14,19.30
2019,04,05,07,15,24.20
2019,04,05,07,16,17.70
2019,04,05,07,17,16.10
2019,04,05,07,18,14.50
2019,04,05,07,19,19.30
2019,04,05,07,20,19.30
2019,04,05,07,21,14.50
2019,04,05,07,22,14.50
2019,04,05,07,23,14.50
2019,04,05,07,24,19.30
2019,04,05,07,25,17.70
2019,04,05,07,26,19.30
2019,04,05,07,27,16.10
2019,04,05,07,28,16.10
2019,04,05,07,29,22.50
2019,04,05,07,30,25.70
2019,04,05,07,31,24.20
2019,04,05,07,32,17.70
2019,04,05,07,33,19.30
2019,04,05,07,34,19.30
2019,04,05,07,35,19.30
2019,04,05,07,36,17.70
2019,04,05,07,37,16.10
2019,04,05,07,38,17.70
2019,04,05,07,39,19.30
2019,04,05,07,40,24.20
2019,04,05,07,41,17.70
2019,04,05,07,42,16.10
2019,04,05,07,43,16.10
2019,04,05,07,44,16.10
2019,04,05,07,45,19.30
2019,04,05,07,46,19.30
2019,04,05,07,47,20.90
2019,04,05,07,48,17.70
2019,04,05,07,49,16.10
2019,04,05,07,50,17.70
2019,04,05,07,51,19.30
2019,04,05,07,52,17.70
2019,04,05,07,53,14.50
2019,04,05,07,54,16.10
2019,04,05,07,55,16.10
2019,04,05,07,56,19.30
2019,04,05,07,57,20.90
2019,04,05,07,58,19.30
2019,04,05,07,59,19.30
2019,04,05,08,00,19.30
2019,04,05,08,01,20.90
2019,04,05,08,02,17.70
2019,04,05,08,03,17.70
2019,04,05,08,04,17.70
2019,04,05,08,05,12.90
2019,04,05,08,06,16.10
2019,04,05,08,07,19.30
2019,04,05,08,08,17.70
2019,04,05,08,09,12.90
2019,04,05,08,10,20.90
2019,04,05,08,11,16.10
2019,04,05,08,12,19.30
2019,04,05,08,13,14.50
2019,04,05,08,14,19.30
2019,04,05,08,15,17.70
2019,04,05,08,16,19.30
2019,04,05,08,17,25.70
2019,04,05,08,18,19.30
2019,04,05,08,19,17.70
2019,04,05,08,20,16.10
2019,04,05,08,21,20.90
2019,04,05,08,22,16.10
2019,04,05,08,23,22.50
2019,04,05,08,24,19.30
2019,04,05,08,25,17.70
2019,04,05,08,26,24.20
2019,04,05,08,27,17.70
2019,04,05,08,28,19.30
2019,04,05,08,29,17.70
2019,04,05,08,30,20.90
2019,04,05,08,31,16.10
2019,04,05,08,32,12.90
2019,04,05,08,33,17.70
2019,04,05,08,34,14.50
2019,04,05,08,35,19.30
2019,04,05,08,36,14.50
2019,04,05,08,37,12.90
2019,04,05,08,38,16.10
2019,04,05,08,39,14.50
2019,04,05,08,40,14.50
2019,04,05,08,41,12.90
2019,04,05,08,42,11.30
2019,04,05,08,43,12.90
2019,04,05,08,44,14.50
2019,04,05,08,45,17.70
2019,04,05,08,46,14.50
2019,04,05,08,47,17.70
2019,04,05,08,48,17.70
2019,04,05,08,49,11.30
2019,04,05,08,50,20.90
2019,04,05,08,51,12.90
2019,04,05,08,52,16.10
2019,04,05,08,53,11.30
2019,04,05,08,54,20.90
2019,04,05,08,55,17.70
2019,04,05,08,56,14.50
2019,04,05,08,57,16.10
2019,04,05,08,58,16.10
2019,04,05,08,59,19.30
2019,04,05,09,00,16.10
2019,04,05,09,01,14.50
2019,04,05,09,02,16.10
2019,04,05,09,03,19.30
2019,04,05,09,04,16.10
2019,04,05,09,05,16.10
2019,04,05,09,06,19.30
2019,04,05,09,07,20.90
2019,04,05,09,08,14.50
2019,04,05,09,09,16.10
2019,04,05,09,10,16.10
2019,04,05,09,11,16.10
2019,04,05,09,12,17.70
2019,04,05,09,13,14.50
2019,04,05,09,14,14.50
2019,04,05,09,15,24.20
2019,04,05,09,16,17.70
2019,04,05,09,17,17.70
2019,04,05,09,18,16.10
2019,04,05,09,19,20.90
2019,04,05,09,20,19.30
2019,04,05,09,21,16.10
2019,04,05,09,22,11.30
2019,04,05,09,23,20.90
2019,04,05,09,24,25.70
2019,04,05,09,25,16.10
2019,04,05,09,26,20.90
2019,04,05,09,27,19.30
2019,04,05,09,28,16.10
2019,04,05,09,29,11.30
2019,04,05,09,30,17.70
2019,04,05,09,31,19.30
2019,04,05,09,32,20.90
2019,04,05,09,33,19.30
2019,04,05,09,34,24.20
2019,04,05,09,35,17.70
2019,04,05,09,36,19.30
2019,04,05,09,37,24.20
2019,04,05,09,38,16.10
2019,04,05,09,39,14.50
2019,04,05,09,40,14.50
2019,04,05,09,41,14.50
2019,04,05,09,42,12.90
2019,04,05,09,43,16.10
2019,04,05,09,44,17.70
2019,04,05,09,45,17.70
2019,04,05,09,46,16.10
2019,04,05,09,47,19.30
2019,04,05,09,48,14.50
2019,04,05,09,49,14.50
2019,04,05,09,50,17.70
2019,04,05,09,51,11.30
2019,04,05,09,52,16.10
2019,04,05,09,53,17.70
2019,04,05,09,54,16.10
2019,04,05,09,55,16.10
2019,04,05,09,56,12.90
2019,04,05,09,57,17.70
2019,04,05,09,58,17.70
2019,04,05,09,59,17.70
2019,04,05,10,00,19.30
2019,04,05,10,01,19.30
2019,04,05,10,02,17.70
2019,04,05,10,03,16.10
2019,04,05,10,04,16.10
2019,04,05,10,05,12.90
2019,04,05,10,06,14.50
2019,04,05,10,07,14.50
2019,04,05,10,08,16.10
2019,04,05,10,09,17.70
2019,04,05,10,10,12.90
2019,04,05,10,11,11.30
2019,04,05,10,12,16.10
2019,04,05,10,13,12.90
2019,04,05,10,14,20.90
2019,04,05,10,15,22.50
2019,04,05,10,16,16.10
2019,04,05,10,17,19.30
2019,04,05,10,18,19.30
2019,04,05,10,19,12.90
2019,04,05,10,20,17.70
2019,04,05,10,21,25.70
2019,04,05,10,22,27.40
2019,04,05,10,23,12.90
2019,04,05,10,24,11.30
2019,04,05,10,25,17.70
2019,04,05,10,26,17.70
2019,04,05,10,27,16.10
2019,04,05,10,28,16.10
2019,04,05,10,29,14.50
2019,04,05,10,30,16.10
2019,04,05,10,31,12.90
2019,04,05,10,32,16.10
2019,04,05,10,33,16.10
2019,04,05,10,34,17.70
2019,04,05,10,35,14.50
2019,04,05,10,36,16.10
2019,04,05,10,37,17.70
2019,04,05,10,38,16.10
2019,04,05,10,39,16.10
2019,04,05,10,40,20.90
2019,04,05,10,41,12.90
2019,04,05,10,42,12.90
2019,04,05,10,43,9.60
2019,04,05,10,44,8.10
2019,04,05,10,45,8.10
2019,04,05,10,46,8.10
2019,04,05,10,47,9.60
2019,04,05,10,48,11.30
2019,04,05,10,49,11.30
2019,04,05,10,50,11.30
2019,04,05,10,51,14.50
2019,04,05,10,52,14.50
2019,04,05,10,53,14.50
2019,04,05,10,54,22.50
2019,04,05,10,55,19.30
2019,04,05,10,56,14.50
2019,04,05,10,57,22.50
2019,04,05,10,58,19.30
2019,04,05,10,59,17.70
2019,04,05,11,00,19.30
2019,04,05,11,01,17.70
2019,04,05,11,02,17.70
2019,04,05,11,03,24.20
2019,04,05,11,04,19.30
2019,04,05,11,05,22.50
2019,04,05,11,06,22.50
2019,04,05,11,07,24.20
2019,04,05,11,08,20.90
2019,04,05,11,09,30.60
2019,04,05,11,10,20.90
2019,04,05,11,11,20.90
2019,04,05,11,12,20.90
2019,04,05,11,13,19.30
2019,04,05,11,14,14.50
2019,04,05,11,15,17.70
2019,04,05,11,16,11.30
2019,04,05,11,17,20.90
2019,04,05,11,18,22.50
2019,04,05,11,19,19.30
2019,04,05,11,20,17.70
2019,04,05,11,21,14.50
2019,04,05,11,22,17.70
2019,04,05,11,23,16.10
2019,04,05,11,24,16.10
2019,04,05,11,25,17.70
2019,04,05,11,26,19.30
2019,04,05,11,27,14.50
2019,04,05,11,28,20.90
2019,04,05,11,29,20.90
2019,04,05,11,30,22.50
2019,04,05,11,31,20.90
2019,04,05,11,32,22.50
2019,04,05,11,33,19.30
2019,04,05,11,34,25.70
2019,04,05,11,35,20.90
2019,04,05,11,36,22.50
2019,04,05,11,37,24.20
2019,04,05,11,38,20.90
2019,04,05,11,39,27.40
2019,04,05,11,40,30.60
2019,04,05,11,41,27.40
2019,04,05,11,42,33.80
2019,04,05,11,43,20.90
2019,04,05,11,44,17.70
2019,04,05,11,45,29.00
2019,04,05,11,46,22.50
2019,04,05,11,47,20.90
2019,04,05,11,48,19.30
2019,04,05,11,49,17.70
2019,04,05,11,50,22.50
2019,04,05,11,51,22.50
2019,04,05,11,52,24.20
2019,04,05,11,53,19.30
2019,04,05,11,54,24.20
2019,04,05,11,55,22.50
2019,04,05,11,56,20.90
2019,04,05,11,57,27.40
2019,04,05,11,58,25.70
2019,04,05,11,59,22.50
2019,04,05,12,00,27.40
2019,04,05,12,01,25.70
2019,04,05,12,02,27.40
2019,04,05,12,03,25.70
2019,04,05,12,04,27.40
2019,04,05,12,05,24.20
2019,04,05,12,06,20.90
2019,04,05,12,07,24.20
2019,04,05,12,08,22.50
2019,04,05,12,09,24.20
2019,04,05,12,10,24.20
2019,04,05,12,11,20.90
2019,04,05,12,12,20.90
2019,04,05,12,13,22.50
2019,04,05,12,14,25.70
2019,04,05,12,15,20.90
2019,04,05,12,16,20.90
2019,04,05,12,17,19.30
2019,04,05,12,18,19.30
2019,04,05,12,19,17.70
2019,04,05,12,20,16.10
2019,04,05,12,21,19.30
2019,04,05,12,22,24.20
2019,04,05,12,23,19.30
2019,04,05,12,24,19.30
2019,04,05,12,25,14.50
2019,04,05,12,26,20.90
2019,04,05,12,27,20.90
2019,04,05,12,28,20.90
2019,04,05,12,29,20.90
2019,04,05,12,30,22.50
2019,04,05,12,31,22.50
2019,04,05,12,32,17.70
2019,04,05,12,33,17.70
2019,04,05,12,34,19.30
2019,04,05,12,35,19.30
2019,04,05,12,36,19.30
2019,04,05,12,37,20.90
2019,04,05,12,38,17.70
2019,04,05,12,39,17.70
2019,04,05,12,40,12.90
2019,04,05,12,41,14.50
2019,04,05,12,42,16.10
2019,04,05,12,43,12.90
2019,04,05,12,44,19.30
2019,04,05,12,45,19.30
2019,04,05,12,46,24.20
2019,04,05,12,47,14.50
2019,04,05,12,48,14.50
2019,04,05,12,49,16.10
2019,04,05,12,50,19.30
2019,04,05,12,51,17.70
2019,04,05,12,52,14.50
2019,04,05,12,53,11.30
2019,04,05,12,54,17.70
2019,04,05,12,55,16.10
2019,04,05,12,56,12.90
2019,04,05,12,57,11.30
2019,04,05,12,58,12.90
2019,04,05,12,59,11.30
2019,04,05,13,00,16.10
2019,04,05,13,01,16.10
2019,04,05,13,02,19.30
2019,04,05,13,03,17.70
2019,04,05,13,04,17.70
2019,04,05,13,05,16.10
2019,04,05,13,06,17.70
2019,04,05,13,07,14.50
2019,04,05,13,08,25.70
2019,04,05,13,09,19.30
2019,04,05,13,10,14.50
2019,04,05,13,11,16.10
2019,04,05,13,12,14.50
2019,04,05,13,13,14.50
2019,04,05,13,14,16.10
2019,04,05,13,15,16.10
2019,04,05,13,16,11.30
2019,04,05,13,17,19.30
2019,04,05,13,18,14.50
2019,04,05,13,19,14.50
2019,04,05,13,20,12.90
2019,04,05,13,21,12.90
2019,04,05,13,22,11.30
2019,04,05,13,23,17.70
2019,04,05,13,24,17.70
2019,04,05,13,25,12.90
2019,04,05,13,26,11.30
2019,04,05,13,27,11.30
2019,04,05,13,28,12.90
2019,04,05,13,29,17.70
2019,04,05,13,30,17.70
2019,04,05,13,31,12.90
2019,04,05,13,32,12.90
2019,04,05,13,33,12.90
2019,04,05,13,34,14.50
2019,04,05,13,35,14.50
2019,04,05,13,36,11.30
2019,04,05,13,37,11.30
2019,04,05,13,38,12.90
2019,04,05,13,39,14.50
2019,04,05,13,40,16.10
2019,04,05,13,41,20.90
2019,04,05,13,42,17.70
2019,04,05,13,43,20.90
2019,04,05,13,44,19.30
2019,04,05,13,45,20.90
2019,04,05,13,46,20.90
2019,04,05,13,47,16.10
2019,04,05,13,48,16.10
2019,04,05,13,49,20.90
2019,04,05,13,50,20.90
2019,04,05,13,51,16.10
2019,04,05,13,52,24.20
2019,04,05,13,53,20.90
2019,04,05,13,54,14.50
2019,04,05,13,55,14.50
2019,04,05,13,56,17.70
2019,04,05,13,57,17.70
2019,04,05,13,58,14.50
2019,04,05,13,59,19.30
2019,04,05,14,00,17.70
2019,04,05,14,01,17.70
2019,04,05,14,02,17.70
2019,04,05,14,03,16.10
2019,04,05,14,04,14.50
2019,04,05,14,05,11.30
2019,04,05,14,06,12.90
2019,04,05,14,07,25.70
2019,04,05,14,08,16.10
2019,04,05,14,09,14.50
2019,04,05,14,10,9.60
2019,04,05,14,11,16.10
2019,04,05,14,12,9.60
2019,04,05,14,13,12.90
2019,04,05,14,14,11.30
2019,04,05,14,15,16.10
2019,04,05,14,16,8.10
2019,04,05,14,17,9.60
2019,04,05,14,18,9.60
2019,04,05,14,19,11.30
2019,04,05,14,20,17.70
2019,04,05,14,21,12.90
2019,04,05,14,22,11.30
2019,04,05,14,23,14.50
2019,04,05,14,24,8.10
2019,04,05,14,25,8.10
2019,04,05,14,26,11.30
2019,04,05,14,27,9.60
2019,04,05,14,28,11.30
2019,04,05,14,29,8.10
2019,04,05,14,30,12.90
2019,04,05,14,31,9.60
2019,04,05,14,32,9.60
2019,04,05,14,33,8.10
2019,04,05,14,34,6.40
2019,04,05,14,35,8.10
2019,04,05,14,36,11.30
2019,04,05,14,37,17.70
2019,04,05,14,38,16.10
2019,04,05,14,39,14.50
2019,04,05,14,40,14.50
2019,04,05,14,41,19.30
2019,04,05,14,42,19.30
2019,04,05,14,43,12.90
2019,04,05,14,44,14.50
2019,04,05,14,45,17.70
2019,04,05,14,46,14.50
2019,04,05,14,47,17.70
2019,04,05,14,48,17.70
2019,04,05,14,49,11.30
2019,04,05,14,50,14.50
2019,04,05,14,51,8.10
2019,04,05,14,52,12.90
2019,04,05,14,53,8.10
2019,04,05,14,54,11.30
2019,04,05,14,55,11.30
2019,04,05,14,56,14.50
2019,04,05,14,57,14.50
2019,04,05,14,58,9.60
2019,04,05,14,59,11.30
2019,04,05,15,00,9.60
2019,04,05,15,01,9.60
2019,04,05,15,02,9.60
2019,04,05,15,03,8.10
2019,04,05,15,04,11.30
2019,04,05,15,05,11.30
2019,04,05,15,06,11.30
2019,04,05,15,07,12.90
2019,04,05,15,08,11.30
2019,04,05,15,09,12.90
2019,04,05,15,10,12.90
2019,04,05,15,11,16.10
2019,04,05,15,12,17.70
2019,04,05,15,13,14.50
2019,04,05,15,14,16.10
2019,04,05,15,15,16.10
2019,04,05,15,16,19.30
2019,04,05,15,17,17.70
2019,04,05,15,18,17.70
2019,04,05,15,19,19.30
2019,04,05,15,20,19.30
2019,04,05,15,21,19.30
2019,04,05,15,22,17.70
2019,04,05,15,23,16.10
2019,04,05,15,24,17.70
2019,04,05,15,25,16.10
2019,04,05,15,26,14.50
2019,04,05,15,27,19.30
2019,04,05,15,28,20.90
2019,04,05,15,29,16.10
2019,04,05,15,30,14.50
2019,04,05,15,31,22.50
2019,04,05,15,32,16.10
2019,04,05,15,33,16.10
2019,04,05,15,34,20.90
2019,04,05,15,35,17.70
2019,04,05,15,36,12.90
2019,04,05,15,37,12.90
2019,04,05,15,38,17.70
2019,04,05,15,39,12.90
2019,04,05,15,40,19.30
2019,04,05,15,41,17.70
2019,04,05,15,42,14.50
2019,04,05,15,43,20.90
2019,04,05,15,44,11.30
2019,04,05,15,45,19.30
2019,04,05,15,46,16.10
2019,04,05,15,47,12.90
2019,04,05,15,48,16.10
2019,04,05,15,49,12.90
2019,04,05,15,50,17.70
2019,04,05,15,51,16.10
2019,04,05,15,52,20.90
2019,04,05,15,53,16.10
2019,04,05,15,54,25.70
2019,04,05,15,55,16.10
2019,04,05,15,56,9.60
2019,04,05,15,57,11.30
2019,04,05,15,58,6.40
2019,04,05,15,59,8.10
2019,04,05,16,00,16.10
2019,04,05,16,01,16.10
2019,04,05,16,02,22.50
2019,04,05,16,03,19.30
2019,04,05,16,04,17.70
2019,04,05,16,05,16.10
2019,04,05,16,06,17.70
2019,04,05,16,07,17.70
2019,04,05,16,08,17.70
2019,04,05,16,09,20.90
2019,04,05,16,10,14.50
2019,04,05,16,11,16.10
2019,04,05,16,12,27.40
2019,04,05,16,13,30.60
2019,04,05,16,14,25.70
2019,04,05,16,15,19.30
2019,04,05,16,16,17.70
2019,04,05,16,17,24.20
2019,04,05,16,18,29.00
2019,04,05,16,19,27.40
2019,04,05,16,20,29.00
2019,04,05,16,21,22.50
2019,04,05,16,22,27.40
2019,04,05,16,23,22.50
2019,04,05,16,24,20.90
2019,04,05,16,25,19.30
2019,04,05,16,26,17.70
2019,04,05,16,27,14.50
2019,04,05,16,28,17.70
2019,04,05,16,29,22.50
2019,04,05,16,30,25.70
2019,04,05,16,31,22.50
2019,04,05,16,32,22.50
2019,04,05,16,33,16.10
2019,04,05,16,34,20.90
2019,04,05,16,35,19.30
2019,04,05,16,36,17.70
2019,04,05,16,37,16.10
2019,04,05,16,38,14.50
2019,04,05,16,39,16.10
2019,04,05,16,40,17.70
2019,04,05,16,41,20.90
2019,04,05,16,42,14.50
2019,04,05,16,43,9.60
2019,04,05,16,44,17.70
2019,04,05,16,45,17.70
2019,04,05,16,46,12.90
2019,04,05,16,47,17.70
2019,04,05,16,48,11.30
2019,04,05,16,49,17.70
2019,04,05,16,50,14.50
2019,04,05,16,51,9.60
2019,04,05,16,52,8.10
2019,04,05,16,53,6.40
2019,04,05,16,54,6.40
2019,04,05,16,55,8.10
2019,04,05,16,56,11.30
2019,04,05,16,57,12.90
2019,04,05,16,58,17.70
2019,04,05,16,59,9.60
2019,04,05,17,00,11.30
2019,04,05,17,01,16.10
2019,04,05,17,02,27.40
2019,04,05,17,03,22.50
2019,04,05,17,04,27.40
2019,04,05,17,05,22.50
2019,04,05,17,06,24.20
2019,04,05,17,07,19.30
2019,04,05,17,08,22.50
2019,04,05,17,09,22.50
2019,04,05,17,10,19.30
2019,04,05,17,11,12.90
2019,04,05,17,12,14.50
2019,04,05,17,13,11.30
2019,04,05,17,14,16.10
2019,04,05,17,15,17.70
2019,04,05,17,16,11.30
2019,04,05,17,17,8.10
2019,04,05,17,18,8.10
2019,04,05,17,19,17.70
2019,04,05,17,20,17.70
2019,04,05,17,21,20.90
2019,04,05,17,22,24.20
2019,04,05,17,23,22.50
2019,04,05,17,24,20.90
2019,04,05,17,25,24.20
2019,04,05,17,26,24.20
2019,04,05,17,27,22.50
2019,04,05,17,28,16.10
2019,04,05,17,29,11.30